Location: ??? ?????
(30.6482°N, 60.5850°E)
Time: 01:22:10
(UTC+00:00)

Daily predictions for brighter satellites

Satellite Brightness Start Highest point End
(mag) Time Altitude Azimuth Time Altitude Azimuth Time Altitude Azimuth
OAO 2 Rocket 4.0 00:36:22 51° E 00:36:22 51° E 00:40:04 10° ENE
CZ-4B R/B 4.1 00:33:32 10° ESE 00:35:20 19° E 00:35:20 19° E
Cosmos 2322 3.9 00:38:08 62° NNE 00:38:08 62° NNE 00:42:51 10° NNE
Cosmos 1777 Rocket 4.2 00:38:34 66° ENE 00:38:46 67° ENE 00:43:59 10° SSE
Cosmos 1844 Rocket 3.6 00:36:39 29° NNE 00:39:02 44° ENE 00:44:19 10° SE
ATLAS 2A CENTAUR R/B 4.4 00:38:39 12° S 00:39:29 13° S 00:42:37 10° SSE
Cosmos 2333 Rocket 2.2 00:38:56 66° S 00:39:41 78° ESE 00:45:20 10° NNE
COSMO-SKYMED 1 4.4 00:42:55 10° SE 00:46:41 30° ENE 00:50:10 12° NNE
ASTRO E2 4.4 00:49:24 27° SSE 00:49:24 27° SSE 00:51:35 10° SE
Meteor 2-5 Rocket 4.0 00:45:01 23° N 00:48:31 68° E 00:54:11 10° SSE
OAO 3 Rocket 3.4 00:49:47 62° ENE 00:49:47 62° ENE 00:53:52 10° E
Meteor 1-22 Rocket 4.0 00:46:41 10° S 00:52:14 82° W 00:58:02 10° N
Tsikada Rocket 3.8 00:51:58 49° NNW 00:53:38 73° W 00:59:44 10° S
Cosmos 1726 3.9 00:50:49 10° SSE 00:54:06 32° E 00:57:25 10° NNE
Cosmos 2219 Rocket 2.0 00:51:08 27° SSW 00:54:20 88° WNW 00:59:57 10° NNE
COSMOS 2428 2.7 00:53:07 10° SSW 00:58:49 84° ESE 01:04:31 10° NNE
COSMOS 2455 3.5 01:00:11 36° SW 01:00:11 36° SW 01:04:26 10° S
Cosmos 921 Rocket 4.1 00:56:51 10° S 01:00:56 43° E 01:04:59 10° NNE
IUS-7 SRM-1 4.0 01:01:24 28° SSE 01:01:24 28° SSE 01:05:03 10° E
Cosmos 1356 Rocket 3.4 00:57:30 10° S 01:01:29 74° E 01:05:32 10° NNE
Cosmos 1461 4.0 01:00:20 10° S 01:04:43 49° ESE 01:09:17 10° NE
SJ 16-02 2.8 01:01:29 14° N 01:04:53 36° ENE 01:08:54 10° SE
IRIDIUM 106 4.3 01:03:25 10° S 01:08:36 82° E 01:13:50 10° N
Aureole 2 Rocket 3.1 01:16:22 40° SSE 01:16:22 40° SSE 01:18:22 10° SSE
H-2A R/B 3.2 01:12:22 10° NNE 01:16:01 57° E 01:19:40 10° S
CZ-2C R/B 3.0 01:13:54 17° SSW 01:16:12 28° SSE 01:19:34 10° E
Cosmos 1953 4.0 01:18:15 10° SSE 01:21:53 34° E 01:25:31 10° NNE
FALCON 9 DEB 4.1 01:20:02 19° SSW 01:22:08 45° SE 01:25:23 10° NE
H-2A R/B 4.1 01:20:23 10° SSW 01:21:18 15° SW 01:21:18 15° SW
OAO 1 Rocket 4.3 01:22:01 36° WSW 01:24:15 87° NNW 01:29:35 10° ENE
CZ-3 Stage 3 1.0 01:23:50 44° WSW 01:24:45 68° S 01:26:54 10° E
Haruka 3.9 01:27:41 32° W 01:30:11 87° N 01:46:45 10° E
Meteor 1-24 Rocket 3.7 01:28:07 10° NNW 01:33:29 58° W 01:39:00 10° S
SKYMED 2 3.5 01:30:17 10° S 01:34:35 67° W 01:38:44 11° NNW
SL-24 R/B 4.2 01:31:20 10° SSW 01:34:46 39° W 01:35:14 37° W
Cosmos 1689 Rocket 3.3 01:32:02 10° SSE 01:34:48 41° ENE 01:37:34 10° N
Cosmos 1455 Rocket 2.9 01:31:04 10° S 01:35:27 77° W 01:39:49 10° N
GEOS 3 Rocket 3.8 01:30:27 10° SE 01:35:44 77° ENE 01:40:51 12° NNW
ATLAS 5 CENTAUR R/B 4.1 01:34:16 10° NNE 01:36:38 20° ENE 01:41:13 10° ESE
SAR-Lupe-4 3.9 01:35:11 10° SSE 01:38:44 66° ENE 01:42:17 10° N
Cosmos 1763 Rocket 3.5 01:34:35 10° SSW 01:39:35 55° WNW 01:44:40 10° N
Atlas Centaur 2 3.5 01:33:18 11° WSW 01:41:01 63° SSE 01:49:24 10° E
Cosmos 841 Rocket 3.8 01:37:32 10° S 01:42:37 68° ESE 01:47:42 10° NNE
MOS 1 Rocket 3.4 01:41:00 10° S 01:46:16 80° WSW 01:51:16 10° NNW
Okean O Rocket 3.9 01:43:08 10° NE 01:46:50 27° E 01:50:30 10° SSE
Cosmos 1758 3.8 01:45:36 10° SSW 01:49:16 35° W 01:53:00 10° NNW
CZ-4B R/B 3.4 01:46:18 10° NNW 01:49:24 28° WNW 01:52:34 10° SW
SAR-Lupe-1 3.9 01:46:34 10° SSE 01:50:07 85° WSW 01:53:43 10° NNW
Cosmos 1844 4.0 01:47:03 12° NW 01:52:09 48° WSW 01:57:39 10° S
Cosmos 1908 3.8 01:51:34 10° S 01:55:17 60° E 01:59:03 10° NNE
Delta 2 Rocket 4.4 01:54:58 18° W 01:59:08 55° SSW 02:04:33 10° SE
CZ-3A R/B 3.8 01:50:24 13° W 02:00:20 46° SSW 02:06:33 10° SE
Cosmos 1464 Rocket 4.2 01:59:08 10° SSW 02:04:55 44° W 02:10:44 10° N
MOS 1-B 4.4 02:01:37 10° NNE 02:07:25 88° ESE 02:13:11 10° SSW
CZ-4B R/B 3.2 02:06:21 10° SW 02:08:09 14° W 02:08:26 14° W
GPS 2-04 Rocket1 3.2 02:09:21 13° WNW 02:12:51 53° NNE 02:16:56 10° E
SL-16 R/B 3.8 02:08:09 10° S 02:13:21 40° ESE 02:18:35 10° NE
Cosmos 1814 Rocket 3.9 02:08:29 10° SSW 02:13:39 82° WNW 02:18:47 10° NNE
YAOGAN 6 3.3 02:10:45 10° N 02:14:03 32° WNW 02:17:22 10° SW
ERS-2 3.3 02:11:26 10° SSW 02:14:23 23° W 02:17:22 10° NW
NOAA 6 4.1 02:10:32 10° N 02:15:39 62° WNW 02:20:45 10° SSW
PAYLOAD B 4.2 02:10:22 10° N 02:15:57 81° WNW 02:21:32 10° SSW
SL-19 R/B 4.3 02:12:09 10° N 02:16:04 54° WNW 02:19:27 10° SSW
Cosmos 1892 Rocket 4.3 02:14:00 10° NNW 02:17:51 31° W 02:21:42 10° SSW
H-2A R/B 2.6 02:14:15 10° N 02:18:43 75° WNW 02:23:13 10° SSW
OAO 2 Rocket 3.6 02:15:20 10° W 02:20:04 53° N 02:24:54 10° ENE
NOSS 0 Rocket 4.3 02:14:34 10° SW 02:20:21 41° WNW 02:26:09 10° N
Cosmos 1937 Rocket 3.7 02:16:19 10° NNW 02:21:36 77° ENE 02:26:48 10° SSE
Cosmos 1844 Rocket 4.1 02:18:47 10° WNW 02:22:28 18° W 02:26:08 10° SW
CZ-4B R/B 3.5 02:17:01 10° NNE 02:22:41 80° ESE 02:28:15 10° S
COSMO-SKYMED 1 4.1 02:20:01 10° SW 02:22:49 17° W 02:25:39 10° NW
BREEZE-M DEB (TANK) 3.9 02:21:12 10° WNW 02:23:45 24° NNW 02:29:11 10° NE
Envisat 3.6 02:19:39 10° N 02:24:14 35° WNW 02:28:47 10° SW
Cosmos 2278 Rocket 2.8 02:18:49 10° NNW 02:24:27 62° ENE 02:30:02 10° SSE
Cosmos 2333 Rocket 3.9 02:22:32 10° WNW 02:24:31 12° NW 02:26:30 10° NW
Cosmos 1703 3.6 02:22:30 10° N 02:26:22 70° E 02:30:15 10° SSE
Cosmos 2237 Rocket 2.5 02:22:56 10° SW 02:28:17 44° WNW 02:33:41 10° N
Cosmos 1726 4.1 02:29:11 10° WNW 02:29:21 10° WNW 02:29:29 10° WNW
